Vertical_Velocity
-7 -2 -1 -1 -1 1 -1 1 -1 -1 0 0 0 2 2 1 -0 -0 0 -2 -1 -1 -1 -1 -1 -2 0 1 -0 -0 1 -0 -1 -1 0 -1 0 -0 -0 -0 -1 -0 -1
8 -2 -1 -2 -1 -0 1 2 3 -3 0 -0 1 1 0 -0 -1 1 0 1 -2 -1 -1 -0 1 -1 -0 -1 -3 1 -1 1 -2 -2 -2 -0 -2 1 1 -1 0 -0 -1
1 -0 -1 -0 -2 -2 0 2 4 -2 -2 0 -0 -0 -1 1 -1 -2 -1 0 -0 -1 -1 0 1 -1 0 -1 -2 -0 -1 -1 -1 -1 -2 -1 -1 0 -1 -1 -1 -1 -1
1 1 -5 -0 1 -1 -3 1 4 -1 -1 -1 -1 1 -1 1 -1 -4 1 -2 0 0 -1 0 1 -1 0 1 -2 1 -1 -1 -0 -1 -1 -0 -0 -0 -0 0 0 -1 -0
-4 1 -2 -1 -2 -1 -0 -1 4 2 -1 -1 0 1 -1 0 -1 0 -2 -1 -0 1 1 -0 0 -0 0 -0 -2 -0 -1 -1 -0 -2 -1 -1 -1 -0 -1 0 0 -1 -1
5 5 -1 -1 -5 -2 0 -3 1 2 -1 -2 0 1 0 -1 -1 1 -1 -2 0 0 0 2 -0 -1 -1 -1 0 -0 -2 -0 0 -1 -0 -2 -1 -1 -1 -0 -0 -1 -1
-4 1 -2 1 -3 0 4 -0 -3 2 1 -1 1 -0 1 0 -1 -1 -1 -1 -1 -0 -0 1 -1 -0 -1 -2 -1 -2 -2 -1 -1 -0 -1 -3 -1 -1 -1 0 0 -2 -1
2 0 -2 -1 -1 -2 4 1 -3 -1 1 -1 0 -1 -1 0 -3 1 0 -1 -1 -1 -0 -1 -1 1 -1 -1 -1 -1 -1 -2 -2 1 -1 -1 -1 -1 -1 -1 -1 -1 -0
3 5 -2 -1 -4 0 4 2 -2 -0 0 1 -1 -1 -1 -1 -3 1 2 -0 1 -2 -2 -1 -1 -0 -0 -0 -0 -0 -1 -2 -2 -1 -1 -2 -1 -0 -1 -1 -2 -1 0
9 3 -2 -1 -1 -1 -3 0 1 1 -1 -0 -0 1 -1 -2 -2 1 0 -0 0 -0 -2 -1 -0 -2 -1 1 -2 -1 -1 -2 -1 -1 -1 -2 -2 -0 -2 -1 -2 -1 -1
-7 1 5 -5 -1 2 -5 1 -0 1 0 2 -1 -2 -0 0 -2 1 1 1 -0 0 0 -2 -1 -1 -3 -1 -2 -0 -1 -1 -0 -1 -1 -2 -2 0 -1 0 -1 -0 -1
-1 4 -3 -1 -1 -1 -2 2 0 1 1 2 0 -1 1 1 -2 1 -1 -0 -1 -1 2 -1 0 0 -3 -1 -1 -0 0 -1 0 0 0 -2 -1 1 -0 0 -0 0 -1
-5 5 -1 1 0 1 -3 2 1 1 -2 1 -1 -1 -0 -2 -1 1 -1 -2 -2 -2 1 -2 -1 -1 -1 -2 0 -1 -1 -2 1 -0 -1 -0 -0 0 1 -0 0 -0 -1
-2 -6 -4 -1 3 0 0 -2 4 3 -1 2 -3 -0 -1 -0 -2 -0 -1 -1 -2 -1 -3 -2 -2 -1 -2 -1 -2 -2 -1 -1 -1 -1 -2 -2 -1 -1 -1 -0 -0 -0 -1
-14 -4 3 3 2 -1 4 0 2 2 5 -2 -2 -2 1 -1 1 1 -3 -1 -1 0 -0 -0 -1 -1 -2 -1 1 -0 -1 -1 -2 -2 -2 -3 -2 -2 -2 -2 -2 -1 -0
-22 -10 1 5 5 -6 6 6 0 2 3 -0 1 -1 1 -2 1 1 -2 -0 -1 -1 1 1 0 -1 -1 -1 -0 2 2 -0 -1 -0 -1 -2 -2 -2 -2 -2 -1 -2 -4
7 8 -29 -14 8 7 6 5 3 -1 3 4 0 1 -0 1 1 1 -2 0 -0 0 -1 -0 -0 -0 -1 -1 -1 -0 0 1 1 0 0 0 -0 0 -0 -0 0 0 -0
10 -14 -36 4 2 7 4 5 4 -1 6 3 -1 -0 0 2 2 2 0 -1 0 -0 -0 0 -0 -1 -0 -0 0 1 0 1 1 0 -0 1 0 -1 1 -0 -1 -0 1
21 5 -0 -0 4 3 6 8 1 4 7 6 2 2 -0 2 4 2 3 1 1 2 3 2 2 2 1 1 -0 1 -0 -2 -1 -1 1 2 -1 -0 -1 -2 -0 -3 -2
17 31 14 -3 10 10 8 8 5 -1 0 0 1 3 -1 1 2 2 2 1 2 4 3 2 1 -0 1 2 -0 0 1 0 1 0 1 -1 -0 -2 0 -0 3 -2 -3
4 25 8 1 12 6 -3 -2 -3 -3 2 2 -2 -2 0 3 4 2 1 1 3 2 3 0 2 4 4 1 -1 1 -1 -0 1 0 1 0 -1 0 3 1 -2 3 2
-2 2 -5 15 15 6 9 7 1 -1 1 3 2 6 0 1 5 4 2 1 3 4 3 4 3 3 -0 2 -0 1 -4 1 2 1 -3 0 2 1 2 1 1 -1 2
-29 -7 9 6 25 11 3 -11 -4 0 4 1 -3 2 9 4 5 1 5 7 4 1 1 2 1 1 1 -1 3 1 -1 -1 2 3 1 -2 -1 1 2 -1 3 3 2
11 -15 117 15 67 -1 18 -0 -14 3 10 16 0 -5 -21 -2 -1 6 -15 -8 -20 -13 -3 -1 -3 6 -1 2 -6 -7 4 2 -0 1 7 -1 2 -1 -2 -1 4 3 3
5 32 84 31 -6 13 8 24 82 123 18 -29 -1 2 -0 -6 -34 4 14 14 6 5 9 -1 -10 1 8 -3 1 0 -7 -12 -7 -4 -7 0 4 2 2 -5 -1 1 5
2 -4 -54 37 56 -37 -4 -16 16 -28 -40 -7 16 13 -10 -5 12 10 20 13 14 1 -13 -1 7 0 1 -2 0 0 4 1 4 8 1 3 3 6 6 0 1 0 -2
Height
3140 3142 3145 3147 3149 3152 3154 3156 3158 3160 3162 3163 3165 3166 3167 3168 3170 3171 3173 3175 3175 3175 3176 3177 3177 3177 3177 3178 3178 3178 3179 3179 3179 3179 3179 3179 3179 3179 3178 3178 3178 3177 3177
3137 3140 3143 3146 3149 3151 3153 3156 3158 3160 3162 3163 3165 3166 3167 3168 3170 3171 3173 3175 3175 3176 3177 3178 3178 3179 3179 3179 3179 3180 3181 3181 3181 3181 3181 3182 3181 3181 3181 3180 3180 3180 3179
3136 3139 3142 3145 3148 3150 3153 3155 3158 3160 3162 3163 3165 3166 3167 3169 3170 3171 3173 3174 3176 3177 3178 3179 3180 3180 3180 3181 3181 3182 3182 3183 3183 3183 3183 3184 3183 3183 3182 3182 3182 3181 3181
3135 3139 3141 3143 3146 3150 3152 3155 3157 3159 3161 3162 3164 3166 3167 3169 3170 3171 3173 3174 3176 3178 3179 3180 3180 3181 3182 3182 3183 3183 3184 3184 3184 3185 3185 3185 3185 3184 3184 3184 3184 3183 3183
3133 3137 3139 3143 3145 3149 3152 3154 3157 3159 3161 3162 3164 3166 3167 3169 3170 3172 3173 3175 3177 3178 3180 3181 3181 3182 3184 3184 3184 3185 3186 3185 3186 3186 3186 3186 3186 3186 3186 3185 3185 3185 3184
3131 3135 3139 3141 3145 3148 3152 3154 3156 3159 3160 3162 3163 3165 3168 3169 3171 3172 3174 3176 3178 3179 3181 3182 3183 3184 3185 3185 3186 3186 3187 3187 3187 3187 3188 3188 3188 3188 3187 3187 3187 3186 3185
3131 3134 3138 3141 3144 3147 3151 3154 3156 3158 3160 3162 3163 3165 3168 3169 3171 3173 3175 3178 3179 3181 3182 3184 3184 3186 3187 3187 3187 3188 3189 3188 3188 3189 3190 3190 3190 3189 3189 3189 3189 3188 3187
3130 3133 3136 3139 3143 3146 3150 3153 3156 3158 3160 3162 3164 3165 3168 3170 3172 3174 3177 3179 3181 3182 3183 3185 3186 3187 3188 3188 3189 3190 3191 3190 3190 3191 3192 3192 3192 3191 3191 3190 3190 3189 3188
3127 3130 3134 3138 3141 3145 3148 3152 3154 3157 3160 3162 3164 3166 3168 3169 3172 3175 3178 3180 3182 3184 3185 3186 3188 3189 3189 3190 3191 3193 3193 3193 3193 3193 3194 3194 3193 3193 3192 3192 3191 3190 3189
3126 3128 3132 3135 3139 3143 3147 3151 3154 3157 3159 3161 3164 3166 3168 3169 3172 3175 3178 3180 3183 3185 3186 3188 3189 3190 3191 3192 3193 3194 3195 3195 3195 3195 3195 3195 3194 3194 3193 3192 3192 3190 3190
3123 3127 3129 3134 3138 3142 3146 3150 3153 3156 3158 3161 3164 3166 3169 3171 3173 3175 3178 3181 3183 3185 3187 3189 3190 3192 3193 3193 3195 3196 3196 3197 3196 3196 3196 3196 3195 3195 3194 3193 3192 3191 3190
3118 3123 3129 3133 3136 3141 3145 3148 3152 3155 3159 3161 3163 3167 3170 3172 3174 3176 3178 3181 3183 3186 3188 3190 3191 3193 3194 3195 3196 3197 3197 3198 3197 3197 3197 3196 3196 3195 3194 3193 3192 3191 3190
3118 3122 3126 3131 3135 3140 3144 3147 3151 3155 3158 3161 3163 3167 3170 3173 3175 3178 3180 3182 3184 3186 3188 3190 3192 3194 3195 3195 3197 3198 3198 3198 3198 3197 3197 3197 3196 3196 3195 3194 3193 3192 3191
3113 3119 3124 3129 3134 3138 3143 3147 3150 3153 3157 3161 3163 3167 3170 3172 3175 3178 3180 3183 3185 3187 3189 3191 3193 3195 3196 3197 3197 3198 3198 3198 3198 3198 3197 3197 3197 3196 3195 3194 3193 3192 3191
3109 3116 3121 3128 3132 3136 3141 3145 3149 3152 3156 3160 3163 3166 3169 3172 3175 3177 3180 3183 3185 3188 3190 3192 3194 3195 3196 3197 3198 3199 3199 3199 3199 3199 3198 3198 3197 3196 3196 3194 3193 3192 3191
3109 3116 3118 3124 3130 3135 3139 3143 3147 3151 3154 3158 3162 3166 3169 3172 3175 3177 3180 3183 3185 3188 3189 3191 3193 3194 3196 3197 3198 3199 3199 3199 3199 3199 3198 3198 3197 3196 3195 3194 3193 3192 3191
3102 3108 3117 3124 3129 3132 3137 3142 3146 3150 3153 3157 3161 3164 3167 3171 3174 3177 3180 3183 3185 3187 3190 3191 3193 3195 3196 3197 3197 3199 3199 3199 3198 3198 3197 3197 3196 3195 3195 3194 3193 3191 3190
3099 3105 3110 3120 3124 3129 3136 3140 3144 3148 3152 3156 3159 3163 3166 3169 3172 3175 3178 3182 3184 3187 3189 3191 3193 3194 3195 3196 3196 3197 3197 3197 3197 3196 3196 3195 3195 3195 3194 3193 3191 3190 3189
3094 3101 3095 3114 3121 3126 3132 3137 3141 3146 3150 3153 3157 3162 3165 3168 3172 3175 3177 3180 3183 3186 3188 3190 3192 3193 3193 3194 3195 3195 3195 3195 3195 3194 3193 3193 3192 3192 3191 3190 3190 3188 3187
3090 3095 3105 3111 3117 3123 3128 3133 3137 3142 3147 3151 3156 3161 3165 3168 3172 3175 3178 3180 3183 3185 3187 3189 3190 3190 3191 3191 3192 3192 3192 3192 3191 3191 3191 3190 3189 3189 3188 3187 3186 3186 3184
3082 3089 3100 3106 3112 3118 3125 3129 3133 3138 3143 3149 3154 3160 3164 3167 3170 3174 3176 3179 3181 3183 3184 3185 3186 3188 3188 3188 3188 3188 3187 3187 3187 3187 3187 3187 3186 3185 3185 3184 3182 3181 3180
3082 3086 3094 3103 3109 3115 3121 3126 3131 3136 3141 3146 3149 3154 3159 3163 3167 3170 3173 3176 3179 3181 3182 3183 3183 3183 3183 3183 3183 3183 3183 3183 3182 3182 3181 3182 3182 3181 3181 3181 3179 3177 3176
3079 3084 3093 3099 3103 3106 3115 3122 3126 3132 3137 3140 3143 3149 3154 3158 3162 3166 3169 3172 3174 3175 3177 3178 3179 3179 3178 3178 3178 3178 3176 3177 3177 3177 3176 3177 3176 3176 3176 3177 3175 3173 3172
3077 3082 3067 3095 3091 3101 3102 3108 3115 3121 3130 3137 3139 3142 3147 3150 3155 3158 3163 3166 3169 3170 3172 3172 3173 3173 3172 3172 3170 3171 3171 3171 3170 3171 3170 3171 3171 3170 3170 3171 3171 3169 3167
3073 3075 3079 3091 3096 3101 3103 3100 3105 3089 3116 3126 3136 3142 3144 3146 3151 3154 3157 3159 3162 3163 3164 3164 3165 3165 3163 3164 3162 3161 3161 3162 3163 3163 3164 3165 3163 3163 3163 3162 3164 3164 3162
3073 3073 3064 3080 3081 3094 3103 3096 3096 3104 3114 3121 3129 3133 3136 3139 3144 3148 3152 3154 3155 3155 3156 3156 3157 3157 3155 3154 3153 3152 3153 3154 3154 3154 3154 3157 3155 3155 3154 3153 3154 3156 3155